Estación de Negrete

Ultimos registro cada 15 minutos 35
Estación Fecha / Hora Temperatura Humedad Lluvia Velocidad Dirección Radiación Presion
35 Negrete 07-05-2026 08:30 7,6 98,8 0 0 234 23,1 1017,4
34 Negrete 07-05-2026 08:15 7 98,8 0 0 234 54,4 1017,2
33 Negrete 07-05-2026 08:00 6,4 98,6 0 0 234 15,6 1016,9
32 Negrete 07-05-2026 07:45 6,6 98,6 0 0 233 4,4 1016,9
31 Negrete 07-05-2026 07:30 6,6 98,4 0 0 230 0,6 1017
30 Negrete 07-05-2026 07:15 6,6 98,4 0 0 230 0,6 1016,9
29 Negrete 07-05-2026 07:00 6,6 98,2 0 0 230 0,6 1016,7
28 Negrete 07-05-2026 06:45 7,3 98,1 0 0 230 0,6 1016,5
27 Negrete 07-05-2026 06:30 7,8 98,5 0,2 0 229 0,6 1016,6
26 Negrete 07-05-2026 06:15 7,8 98,5 0 0 209 0,6 1016,5
25 Negrete 07-05-2026 06:00 7,8 98,3 0 0 208 0,6 1016,2
24 Negrete 07-05-2026 05:45 7,9 98,3 0,2 0 208 0,6 1016
23 Negrete 07-05-2026 05:30 8 98,3 0,2 0 208 0,6 1015,9
22 Negrete 07-05-2026 05:15 8 98,2 0 0 208 0,6 1016,1
21 Negrete 07-05-2026 05:00 7,9 98,2 0 0 208 0,6 1015,7
20 Negrete 07-05-2026 04:45 7,9 98,2 0,4 0 208 0,6 1015,5
19 Negrete 07-05-2026 04:30 7,9 98,2 0,2 0 208 0,6 1015,5
18 Negrete 07-05-2026 04:15 7,9 98,2 0 0 208 0,6 1015,4
17 Negrete 07-05-2026 04:00 7,8 98,1 0 0 208 0,6 1015,4
16 Negrete 07-05-2026 03:45 7,8 98,1 0 0 206 0,6 1015,2
15 Negrete 07-05-2026 03:30 7,6 98 0 0 198 0,6 1014,9
14 Negrete 07-05-2026 03:15 7,7 98,1 0 0 218 0,6 1014,9
13 Negrete 07-05-2026 03:00 7,6 98,1 0 0 218 0,6 1014,9
12 Negrete 07-05-2026 02:45 7,5 98,2 0 0 218 0,6 1015,1
11 Negrete 07-05-2026 02:30 7,3 98,1 0 0 195 0,6 1014,9
10 Negrete 07-05-2026 02:15 7,1 98,1 0 0 183 0,6 1014,8
9 Negrete 07-05-2026 02:00 6,9 98 0 0 183 0,6 1014,7
8 Negrete 07-05-2026 01:45 6,5 97,9 0 0 183 0,6 1014,4
7 Negrete 07-05-2026 01:30 6,3 97,9 0 0 183 0,6 1014,3
6 Negrete 07-05-2026 01:15 5,6 97,7 0 0 183 0,6 1014,3
5 Negrete 07-05-2026 01:00 5,3 97,1 0 0 183 0,6 1014
4 Negrete 07-05-2026 00:45 5,5 97,1 0 0 183 0,6 1013,7
3 Negrete 07-05-2026 00:30 5,6 96,8 0 0 183 0,6 1013,7
2 Negrete 07-05-2026 00:15 6,1 96,8 0 0 183 0,6 1013,8
1 Negrete 07-05-2026 00:00 6,3 96,8 0 0 183 0,6 1013,9